| time (UTC) | temp C | wind direction | speed KPH | gust KPH | rain 1hr cm | rain 24hr cm | rain mn cm | humidity % | barometer mb |
| 20260508121539 | 6 | 284 | 6.4 | 16.1 | 0.00 | 0.00 | 0.00 | 77 | 1005.3 |
| 20260508120040 | 5 | 238 | 8.0 | 14.5 | 0.00 | 0.00 | 0.00 | 78 | 1005.3 |
| 20260508114542 | 5 | 286 | 1.6 | 12.9 | 0.00 | 0.00 | 0.00 | 79 | 1005.2 |
| 20260508113042 | 4 | 286 | 6.4 | 14.5 | 0.00 | 0.00 | 0.00 | 81 | 1005.2 |
| 20260508111541 | 3 | 294 | 3.2 | 6.4 | 0.00 | 0.00 | 0.00 | 83 | 1005.0 |
| 20260508110037 | 3 | 285 | 4.8 | 9.7 | 0.00 | 0.00 | 0.00 | 82 | 1004.9 |
| 20260508104536 | 2 | 0 | 1.6 | 6.4 | 0.00 | 0.00 | 0.00 | 83 | 1004.8 |
| 20260508103038 | 2 | 232 | 1.6 | 4.8 | 0.00 | 0.00 | 0.00 | 83 | 1004.7 |
| 20260508101547 | 2 | 296 | 0.0 | 3.2 | 0.00 | 0.00 | 0.00 | 87 | 1004.6 |
| 20260508100042 | 1 | 296 | 0.0 | 4.8 | 0.00 | 0.00 | 0.00 | 88 | 1004.4 |
| 20260508094537 | 1 | 0 | 0.0 | 4.8 | 0.00 | 0.00 | 0.00 | 87 | 1004.3 |
| 20260508093037 | 0 | 0 | 0.0 | 3.2 | 0.00 | 0.00 | 0.00 | 87 | 1004.1 |
| 20260508091603 | 0 | 298 | 1.6 | 6.4 | 0.00 | 0.00 | 0.00 | 86 | 1004.0 |
| 20260508090052 | 0 | 305 | 0.0 | 3.2 | 0.00 | 0.00 | 0.00 | 86 | 1004.0 |
| 20260508084542 | 1 | 0 | 0.0 | 6.4 | 0.00 | 0.00 | 0.00 | 84 | 1004.0 |
| 20260508083042 | 1 | 309 | 1.6 | 6.4 | 0.00 | 0.00 | 0.00 | 83 | 1003.8 |
| 20260508081546 | 1 | 309 | 1.6 | 6.4 | 0.00 | 0.00 | 0.00 | 84 | 1003.8 |
| 20260508080039 | 1 | 336 | 1.6 | 12.9 | 0.00 | 0.00 | 0.00 | 82 | 1003.6 |
| 20260508074536 | 1 | 302 | 1.6 | 4.8 | 0.00 | 0.03 | 0.00 | 84 | 1003.5 |
| 20260508073037 | 1 | 0 | 0.0 | 1.6 | 0.00 | 0.03 | 0.00 | 80 | 1003.5 |
| 20260508071539 | 2 | 302 | 1.6 | 9.7 | 0.00 | 0.03 | 0.00 | 76 | 1003.4 |
| 20260508070039 | 2 | 295 | 3.2 | 9.7 | 0.00 | 0.03 | 0.00 | 75 | 1003.5 |
| 20260508064538 | 3 | 304 | 6.4 | 12.9 | 0.00 | 0.20 | 0.00 | 70 | 1003.4 |
| 20260508063105 | 3 | 300 | 4.8 | 9.7 | 0.00 | 0.20 | 0.00 | 69 | 1003.7 |
| 20260508061540 | 4 | 262 | 8.0 | 17.7 | 0.00 | 0.20 | 0.00 | 69 | 1003.8 |
| 20260508060040 | 4 | 290 | 8.0 | 19.3 | 0.00 | 0.20 | 0.00 | 68 | 1003.6 |
| 20260508054542 | 4 | 305 | 9.7 | 14.5 | 0.00 | 0.41 | 0.00 | 68 | 1003.9 |
| 20260508053050 | 3 | 307 | 3.2 | 8.0 | 0.00 | 0.41 | 0.00 | 70 | 1004.3 |
| 20260508051600 | 4 | 294 | 4.8 | 14.5 | 0.00 | 0.41 | 0.00 | 66 | 1004.1 |
| 20260508050037 | 3 | 286 | 6.4 | 12.9 | 0.00 | 0.41 | 0.00 | 71 | 1004.5 |
| 20260508044542 | 2 | 289 | 1.6 | 6.4 | 0.00 | 0.43 | 0.00 | 75 | 1004.6 |
| 20260508043037 | 2 | 273 | 1.6 | 6.4 | 0.00 | 0.43 | 0.00 | 75 | 1004.7 |
| 20260508041536 | 4 | 286 | 3.2 | 11.3 | 0.00 | 0.43 | 0.00 | 67 | 1004.8 |
| 20260508040043 | 5 | 289 | 4.8 | 16.1 | 0.00 | 0.43 | 0.00 | 64 | 1005.0 |
| 20260508034543 | 4 | 272 | 4.8 | 11.3 | 0.00 | 0.56 | 0.43 | 68 | 1004.9 |
| 20260508033044 | 3 | 240 | 0.0 | 8.0 | 0.00 | 0.56 | 0.43 | 68 | 1004.9 |
| 20260508031539 | 5 | 296 | 4.8 | 12.9 | 0.00 | 0.56 | 0.43 | 63 | 1004.8 |
| 20260508030047 | 6 | 298 | 8.0 | 14.5 | 0.00 | 0.56 | 0.43 | 60 | 1004.6 |
| 20260508024536 | 5 | 327 | 3.2 | 12.9 | 0.00 | 0.61 | 0.43 | 65 | 1004.6 |
| 20260508023042 | 6 | 289 | 3.2 | 12.9 | 0.00 | 0.61 | 0.43 | 62 | 1004.7 |
| 20260508021549 | 6 | 313 | 8.0 | 19.3 | 0.00 | 0.61 | 0.43 | 58 | 1004.8 |
| 20260508020037 | 6 | 304 | 6.4 | 12.9 | 0.00 | 0.61 | 0.43 | 58 | 1004.9 |
| 20260508014547 | 7 | 299 | 8.0 | 14.5 | 0.00 | 0.89 | 0.43 | 57 | 1005.1 |
| 20260508013035 | 7 | 317 | 3.2 | 12.9 | 0.00 | 0.89 | 0.43 | 60 | 1005.0 |
| 20260508011547 | 7 | 288 | 4.8 | 16.1 | 0.00 | 0.89 | 0.43 | 56 | 1004.8 |
| 20260508010056 | 8 | 298 | 6.4 | 12.9 | 0.00 | 0.89 | 0.43 | 56 | 1004.8 |
| 20260508004537 | 8 | 323 | 3.2 | 14.5 | 0.00 | 1.09 | 0.43 | 56 | 1004.8 |
| 20260508003043 | 8 | 321 | 6.4 | 17.7 | 0.00 | 1.09 | 0.43 | 55 | 1004.7 |
| 20260508001544 | 9 | 310 | 12.9 | 29.0 | 0.00 | 1.09 | 0.43 | 53 | 1004.5 |
| 20260508000045 | 9 | 311 | 6.4 | 27.4 | 0.00 | 1.09 | 0.43 | 56 | 1004.3 |
| 20260507234538 | 10 | 292 | 11.3 | 29.0 | 0.00 | 1.52 | 0.43 | 57 | 1004.0 |
| 20260507233040 | 10 | 336 | 12.9 | 27.4 | 0.00 | 1.52 | 0.43 | 57 | 1003.5 |
| 20260507231536 | 11 | 335 | 6.4 | 24.1 | 0.00 | 1.52 | 0.43 | 60 | 1003.1 |
| 20260507230054 | 11 | 334 | 9.7 | 29.0 | 0.00 | 1.52 | 0.43 | 63 | 1002.9 |
| 20260507224543 | 11 | 9 | 8.0 | 22.5 | 0.00 | 1.88 | 0.43 | 66 | 1002.6 |
| 20260507223124 | 11 | 309 | 8.0 | 17.7 | 0.00 | 1.88 | 0.43 | 71 | 1002.5 |
| 20260507221536 | 12 | 24 | 6.4 | 17.7 | 0.00 | 1.88 | 0.43 | 67 | 1002.4 |
| 20260507220036 | 12 | 0 | 3.2 | 9.7 | 0.00 | 1.88 | 0.43 | 66 | 1002.2 |
| 20260507214539 | 12 | 22 | 3.2 | 8.0 | 0.00 | 2.06 | 0.43 | 67 | 1002.2 |
| 20260507213035 | 12 | 31 | 4.8 | 16.1 | 0.00 | 2.06 | 0.43 | 65 | 1002.2 |
| 20260507211539 | 12 | 317 | 3.2 | 11.3 | 0.00 | 2.06 | 0.43 | 70 | 1002.2 |
| 20260507210042 | 11 | 325 | 3.2 | 16.1 | 0.00 | 2.06 | 0.43 | 72 | 1002.2 |
| 20260507204540 | 12 | 296 | 6.4 | 20.9 | 0.00 | 2.08 | 0.43 | 67 | 1001.9 |
| 20260507203040 | 13 | 331 | 14.5 | 30.6 | 0.00 | 2.08 | 0.43 | 61 | 1001.8 |
| 20260507201540 | 15 | 331 | 9.7 | 24.1 | 0.00 | 2.08 | 0.43 | 53 | 1001.4 |
| 20260507200053 | 14 | 263 | 11.3 | 27.4 | 0.00 | 2.08 | 0.43 | 54 | 1001.3 |
| 20260507194538 | 15 | 275 | 6.4 | 17.7 | 0.00 | 2.08 | 0.43 | 54 | 1001.4 |
| 20260507193045 | 13 | 241 | 11.3 | 20.9 | 0.00 | 2.08 | 0.43 | 56 | 1001.7 |
| 20260507191536 | 13 | 336 | 9.7 | 27.4 | 0.00 | 2.08 | 0.43 | 56 | 1001.7 |
| 20260507190049 | 13 | 260 | 6.4 | 17.7 | 0.00 | 2.08 | 0.43 | 56 | 1001.6 |
| 20260507184540 | 13 | 275 | 8.0 | 19.3 | 0.00 | 2.08 | 0.43 | 56 | 1001.8 |
| 20260507183040 | 14 | 246 | 6.4 | 14.5 | 0.00 | 2.08 | 0.43 | 55 | 1001.8 |
| 20260507181537 | 13 | 252 | 6.4 | 16.1 | 0.00 | 2.08 | 0.43 | 57 | 1002.0 |
| 20260507180036 | 13 | 267 | 4.8 | 11.3 | 0.00 | 2.08 | 0.43 | 56 | 1002.0 |
| 20260507174547 | 14 | 218 | 6.4 | 16.1 | 0.00 | 2.08 | 0.43 | 55 | 1002.1 |
| 20260507173041 | 15 | 190 | 6.4 | 24.1 | 0.00 | 2.08 | 0.43 | 57 | 1002.1 |
| 20260507171539 | 15 | 196 | 6.4 | 16.1 | 0.00 | 2.08 | 0.43 | 51 | 1002.1 |
| 20260507170041 | 15 | 323 | 3.2 | 19.3 | 0.00 | 2.08 | 0.43 | 59 | 1002.3 |
| 20260507164543 | 13 | 217 | 4.8 | 16.1 | 0.00 | 2.08 | 0.43 | 57 | 1002.5 |
| 20260507163036 | 14 | 300 | 6.4 | 14.5 | 0.00 | 2.08 | 0.43 | 57 | 1002.7 |
| 20260507161551 | 13 | 0 | 6.4 | 19.3 | 0.00 | 2.08 | 0.43 | 60 | 1002.9 |
| 20260507160040 | 13 | 285 | 1.6 | 12.9 | 0.00 | 2.08 | 0.43 | 62 | 1002.8 |
| 20260507154542 | 12 | 0 | 1.6 | 14.5 | 0.00 | 2.08 | 0.43 | 61 | 1003.0 |
| 20260507153041 | 12 | 277 | 3.2 | 17.7 | 0.00 | 2.08 | 0.43 | 68 | 1003.3 |
| 20260507151537 | 12 | 289 | 8.0 | 17.7 | 0.00 | 2.08 | 0.43 | 66 | 1003.5 |
| 20260507150048 | 12 | 287 | 4.8 | 16.1 | 0.00 | 2.08 | 0.43 | 69 | 1003.8 |
| 20260507144539 | 12 | 269 | 1.6 | 12.9 | 0.00 | 2.08 | 0.43 | 72 | 1003.8 |
| 20260507143035 | 10 | 332 | 3.2 | 12.9 | 0.00 | 2.08 | 0.43 | 72 | 1003.9 |
| 20260507141543 | 11 | 10 | 0.0 | 9.7 | 0.00 | 2.08 | 0.43 | 77 | 1003.9 |
| 20260507140040 | 10 | 249 | 4.8 | 14.5 | 0.00 | 2.08 | 0.43 | 79 | 1004.1 |
| 20260507134536 | 10 | 311 | 4.8 | 11.3 | 0.00 | 2.08 | 0.43 | 81 | 1004.0 |
| 20260507133036 | 10 | 352 | 4.8 | 11.3 | 0.00 | 2.08 | 0.43 | 81 | 1004.3 |
| 20260507131536 | 9 | 292 | 6.4 | 16.1 | 0.00 | 2.08 | 0.43 | 81 | 1004.2 |
| 20260507130054 | 9 | 317 | 4.8 | 14.5 | 0.00 | 2.08 | 0.43 | 82 | 1004.3 |
| 20260507124547 | 8 | 315 | 1.6 | 11.3 | 0.00 | 2.08 | 0.43 | 86 | 1004.2 |
| 20260507123041 | 8 | 291 | 8.0 | 14.5 | 0.00 | 2.08 | 0.43 | 86 | 1004.4 |